www.pogodaiklimat.ru

Погода и климат >> Архив погоды >> Россия >> Магаданская область >> Среднекан


ПОГОДА в Среднекане

  • Прогноз погоды в Среднекане
  • Монитор погоды в Среднекане

АРХИВ ПОГОДЫ в Среднекане

Время (UTC), дата Ветер
(напр.,м/с)
 
Видим.   Явления Облачность Т
(С)
Тd
(С)
f
(%)
Тe
(С)
Тes
(С)
Комфортность P
(гПа)
Po
(гПа)
Тmin
(С)
Tmax
(С)
R
(мм)
R24
(мм)
S
(см)
00 17.01 штиль 0 500 м туман 10/0
[Ci fib]
-46.1 -51.4 55 -46 -46 опасность
обморожения
1036.2 996.3 -46.3
03 17.01 штиль 0 500 м туман 10/0
[Ci fib]
-45.1 -50.2 56 -45 -45 опасность
обморожения
1033.9 994.2
06 17.01 штиль 0 500 м туман 10/0
[Ci fib]
-45.4 -50.6 56 -45 -45 опасность
обморожения
1032.7 993.1
09 17.01 штиль 0 500 м туман 10/0
[Ci fib]
-45.8 -51.0 55 -46 -46 опасность
обморожения
1031.9 992.2 -44.8
12 17.01 штиль 0 500 м туман 10/0
[Ci fib]
-45.3 -50.5 56 -45 -45 опасность
обморожения
1030.6 991.0
15 17.01 штиль 0 500 м туман 10/0
[Ci fib]
-46.0 -51.2 55 -46 -46 опасность
обморожения
1029.4 989.7
18 17.01 ЮВ 1 500 м туман 10/0
[Ci fib]
-46.5 -51.9 54 -52 -52 опасность
обморожения
1028.4 988.7
21 17.01 Ю 1 500 м туман 10/0
[Ci fib]
-45.8 -51.0 55 -52 -52 опасность
обморожения
1028.3 988.7 -46.7 91
00 18.01 Ю 1 20 км слаб. снег {туман} 10/0
[Ac trans Cs]
-44.0 -49.0 57 -50 -49 опасность
обморожения
1027.5 988.3
03 18.01 ЮВ 1 50 км {снег} 10/0
[Ac trans Cs]
-42.8 -47.8 58 -48 -48 опасность
обморожения
1026.6 987.6
06 18.01 ЮВ 1 20 км слаб. снег 10/0
[Ac trans Cs]
-42.1 -46.9 59 -48 -48 опасность
обморожения
1026.1 987.3
09 18.01 Ю 1 20 км слаб. снег 10/0
[As op]
-40.6 -45.2 61 -46 -46 опасность
обморожения
1026.4 987.8 -40.6 0.2
12 18.01 ЮВ 1 20 км слаб. снег 10/0
[As op]
-39.4 -43.9 62 -45 -45 опасность
обморожения
1026.5 988.1
15 18.01 ЮВ 1 20 км слаб. снег 10/0
[As op]
-38.1 -42.5 63 -43 -43 опасность
обморожения
1026.3 988.0
18 18.01 штиль 0 20 км слаб. снег 10/0
[As op]
-38.8 -43.3 62 -39 -39 опасность
обморожения
1026.9 988.5
21 18.01 штиль 0 20 км слаб. снег 10/0
[As op]
-39.5 -44.1 61 -40 -40 опасность
обморожения
1027.8 989.3 -40.6 0.3 91
00 19.01 штиль 0 20 км слаб. снег 10/0
[As op]
-39.1 -43.6 62 -39 -39 опасность
обморожения
1028.4 989.9
03 19.01 штиль 0 50 км {снег} 10/0
[Ac trans Ci fib]
-35.6 -39.5 67 -36 -35 опасность
обморожения
1028.1 990.2
06 19.01 ЮВ 1 50 км {снег} 10/0
[Ac trans Ci fib]
-38.2 -42.6 63 -43 -43 опасность
обморожения
1029.1 990.8
09 19.01 штиль 0 500 м туман 10/0
[Ac trans Ci fib]
-38.0 -42.3 64 -38 -38 опасность
обморожения
1029.1 990.8 -35.1 0.0
12 19.01 штиль 0 500 м туман 10/0
[Ac trans Ci fib]
-38.1 -42.5 63 -38 -38 опасность
обморожения
1028.7 990.3
15 19.01 штиль 0 500 м туман 10/0
[Ci fib]
-37.4 -41.7 64 -37 -37 опасность
обморожения
1028.0 989.8
18 19.01 штиль 0 500 м туман 10/0
[Ac trans Ci fib]
-37.8 -42.1 64 -38 -38 опасность
обморожения
1026.6 988.4
21 19.01 штиль 0 500 м туман 10/0
[Ac trans Cs]
-36.9 -41.1 65 -37 -37 опасность
обморожения
1026.0 988.0 -38.2 91
00 20.01 штиль 0 20 км слаб. снег {туман} 10/0
[As op]
-34.1 -38.0 68 -34 -34 опасность
обморожения
1024.7 987.1
03 20.01 штиль 0 20 км слаб. снег 10/0
[As op]
-32.4 -36.2 69 -32 -32 опасность
обморожения
1022.2 985.0
06 20.01 штиль 0 20 км слаб. снег 10/0
[As op]
-31.8 -35.4 70 -32 -32 опасность
обморожения
1021.3 984.2
09 20.01 штиль 0 20 км слаб. снег 10/0
[Ac trans Cs]
-30.9 -34.4 71 -31 -31 опасность
обморожения
1020.7 983.8 -30.9 0.7
12 20.01 штиль 0 20 км слаб. снег 10/0
[Ac trans Cs]
-30.1 -33.5 72 -30 -30 1020.4 983.6
15 20.01 штиль 0 20 км слаб. снег 10/0
[Ac trans Cs]
-31.2 -34.8 70 -31 -31 опасность
обморожения
1020.5 983.5
18 20.01 штиль 0 20 км слаб. снег 10/0
[Ac trans Cs]
-31.6 -35.2 70 -32 -32 опасность
обморожения
1020.2 983.2
21 20.01 штиль 0 20 км слаб. снег 10/0
[Ac trans Cs]
-30.7 -34.2 71 -31 -31 опасность
обморожения
1020.4 983.5 -31.8 0.3 91
00 21.01 штиль 0 20 км слаб. снег 10/0
[Ac trans Cs]
-29.3 -32.6 73 -29 -29 1020.9 984.3
03 21.01 штиль 0 50 км {снег} 10/0
[Ac trans Ci fib]
-25.7 -28.9 74 -26 -26 1020.7 984.6
06 21.01 штиль 0 50 км {снег} 10/0
[Ac trans Ci fib]
-29.6 -32.9 73 -30 -30 1021.7 985.0
09 21.01 штиль 0 50 км 10/0
[Ac trans Ci fib]
-29.7 -33.1 72 -30 -30 1023.3 986.5 -24.7 0.0
12 21.01 штиль 0 50 км 10/0
[Ac trans Ci fib]
-29.0 -32.3 73 -29 -29 1024.1 987.4
15 21.01 штиль 0 20 км слаб. снег 10/0
[As op]
-28.0 -31.2 74 -28 -28 1024.5 987.9
18 21.01 штиль 0 20 км слаб. снег 10/0
[As op]
-26.1 -29.1 76 -26 -26 1025.0 988.6
21 21.01 штиль 0 20 км слаб. снег 10/0
[Ac trans Cs]
-26.9 -30.0 75 -27 -27 1025.9 989.4 -29.8 0.0 90
00 22.01 штиль 0 50 км {снег} 10/0
[Ac und]
-26.9 -30.0 75 -27 -27 1026.4 989.9
03 22.01 штиль 0 50 км 10/0
[Ac lent Cs]
-23.9 -26.6 78 -24 -24 1025.9 989.8
06 22.01 штиль 0 50 км 10/0
[Ac und]
-25.1 -28.0 77 -25 -25 1026.8 990.5
09 22.01 штиль 0 20 км слаб. снег 10/0
[Ac trans Cs]
-24.6 -27.4 77 -25 -25 1027.9 991.6 -23.5 0.0
12 22.01 штиль 0 20 км слаб. снег 10/0
[Ac trans Cs]
-25.6 -28.4 77 -26 -26 1028.1 991.7
15 22.01 штиль 0 20 км слаб. снег 10/0
[As op]
-25.1 -28.0 77 -25 -25 1028.6 992.3
18 22.01 штиль 0 20 км слаб. снег 10/0
[As op]
-24.3 -27.1 78 -24 -24 1029.4 993.1
21 22.01 штиль 0 20 км слаб. снег 10/0
[As op]
-24.3 -27.0 78 -24 -24 1029.9 993.6 -25.8 0.4 91
00 23.01 штиль 0 20 км слаб. снег 10/0
[As op]
-22.8 -25.4 79 -23 -23 1029.7 993.7
03 23.01 штиль 0 20 км слаб. снег 10/0
[As op]
-21.7 -24.2 80 -22 -22 1029.3 993.4
06 23.01 штиль 0 20 км слаб. снег 10/0
[As op]
-21.6 -24.0 81 -22 -22 1029.7 993.8
09 23.01 штиль 0 20 км слаб. снег 10/0
[As op]
-21.3 -23.6 82 -21 -21 1029.2 993.4 -21.3 0.2
12 23.01 штиль 0 20 км слаб. снег 10/0
[As op]
-20.7 -23.0 82 -21 -21 1028.8 993.0
15 23.01 штиль 0 20 км слаб. снег 10/0
[As op]
-20.5 -22.8 82 -21 -21 1028.0 992.3
18 23.01 штиль 0 20 км слаб. снег 10/0
[As op]
-21.5 -24.0 80 -22 -22 1027.8 992.0
21 23.01 штиль 0 50 км {снег} 10/0
[Ac trans Ci fib]
-27.0 -30.1 75 -27 -27 1028.5 991.9 -27.0 0.0 92

 

Местоположение метеостанции Среднекан (Магаданская область, Россия): широта 62.45 долгота 152.30 высота над уровнем моря 260 м.

В архиве по умолчанию представлена погода в Среднекане за последнюю неделю. Архивные данные за месяц целиком и за предыдущие месяцы, начиная с января 2011 года, Вы можете получить, выбрав интересующий диапазон дат из раскрывающегося списка и нажав кнопку "Ввод!".


*Определитесь, кто Вы:
робот инопланетянин человек

Внимание! Время в таблицах - всемирное. Для получения местного времени необходимо прибавить поправку, которая равна 11 ч.

Смотрите также архив погоды в соседних городах и на ближайших метеорологических станциях:

Погода в Сеймчане (Магаданская область, Россия) (51 км)
Погода в Совхозе Эльген (Магаданская область, Россия) (95 км)
Погода в Усть-Бохапче (Магаданская область, Россия) (96 км)
Погода в Ягодной (Магаданская область, Россия) (139 км)
Погода в Талой (Магаданская область, Россия) (147 км)
Погода на Озере Джека Лондона (Магаданская область, Россия) (151 км)
Погода в Омсукчане (Магаданская область, Россия) (180 км)
Погода в Балыгычане (Магаданская область, Россия) (186 км)
Погода в Усть-Омчуге (Магаданская область, Россия) (205 км)
Погода в Сусумане (Магаданская область, Россия) (218 км)

Пояснения к столбцам:

Ветер - указаны скорость ветра в м/с - средняя за 10 мин, порывы в срок и между сроками (в фигурных скобках) и направление, откуда дует ветер: С - северный, СВ - северо-восточный, В - восточный, ЮВ - юго-восточный, Ю - южный, ЮЗ - юго-западный, З - западный, СЗ - северо-западный.
Видимость - горизонтальная дальность видимости в метрах или километрах. При видимости от 1 до 10 км при отсутствии осадков обычно наблюдается дымка, при ухудшении видимости до 1 км и менее - туман. В сухую погоду видимость может ухудшаться дымом, пылью или мглою.
Явления - указаны атмосферные явления, наблюдавшиеся в срок или в последний час перед сроком; фигурными скобками обозначены явления, наблюдавшиеся между сроками (за 1-3 часа до срока); квадратными скобками обозначены град или гололедные отложения с указанием их диаметра в мм.
Облачность - указаны через наклонную черту общая и нижняя облачность в баллах и высота нижней границы облаков в метрах; квадратными скобками обозначены формы облаков: Ci - перистые, Cs - перисто-слоистые, Cc - перисто-кучевые, Ac - высококучевые, As - высокослоистые, Sc - слоисто-кучевые, Ns - слоисто-дождевые, Cu - кучевые, Cb - кучево-дождевые. Подробнее классификацию облаков см. в Атласе облаков (PDF).
T - Температура воздуха - температура, измеренная на высоте 2 м над землей.
Td - Температура точки росы - температура, при понижении до которой содержащийся в воздухе водяной пар достигнет насыщения.
f - Относительная влажность воздуха - влажноcть воздуха, измеренная на высоте 2 м над землей.
Te - Эффективная температура - температура, которую ощущает одетый по сезону человек в тени. Характеристика душности погоды. При расчете учитывается влияние влажности воздуха и скорости ветра на теплоощущения человека.
Tes - Эффективная температура на солнце - температура, которую ощущает человек, с поправкой на солнечный нагрев. Характеристика знойности погоды. Зависит от высоты солнца над горизонтом, облачности и скорости ветра. Ночью, в пасмурную погоду, а также при ветре 12 м/с и более поправка равна нулю.
P - Атмосферное давление - приведенное к уровню моря атмосферное давление.
Po - Атмосферное давление - измеренное на уровне метеостанции атмосферное давление.
Tmin - Минимальная температура - минимум температуры воздуха на высоте 2 м над землей.
Tmax - Максимальная температура - максимум температуры воздуха на высоте 2 м над землей.
R - Количество осадков - Количество выпавших осадков за период времени, мм. При наведении курсора мыши на число - период времени, за который выпало указанное количество осадков.
R24 - Количество осадков - Количество выпавших осадков за 24 часа, мм.
S - Снежный покров - Высота снежного покрова, см. При наведении курсора мыши на число - состояние снежного покрова и степень покрытия местности в баллах.